Starlink 30849

operational
NORAD ID: 58245 Int'l Des: 2023-171 Owner: SPXS Country: US Constellation: starlink
LEOCIRCULAR

Starlink 30849について

説明を読み込み中...

リアルタイム位置

3D地球を読み込み中...

次回通過

高度履歴

Altitude vs Time

uPlot chart will show altitude changes over time

軌道要素

1 58245U 23171R 25351.35196800 .00000259 00000-0 34277-4 0 9999
2 58245 43.0051 13.0638 0001303 272.7973 87.2721 15.02540584117341
Epoch: Dec 17, 2025 • Age: 10 hours

現在のステータス

高度 562.5 km
速度 7.59 km/s
衛星直下点 40.37°N, 121.61°E
打ち上げ日 Nov 8, 2023
運用期間 2.1 years
タイプ internet

技術仕様

分類 Payload
質量 730.00 kg
乾燥質量 700.00 kg
総質量 730.00 kg
長さ 0.30 m
直径 4.10 m
スパン 29.00 m
形状 Box + pan
製造者 SPXS
バスタイプ Starlink V2M
フェーズステータス In Orbit
所有者/国 SPXS/US

大規模コンステレーション

Loading constellations...